I2476 LICA-LICR

Flight info

Callsign I2476
Flight time N/A
Altitude 15000
Route TERME PEROS LICR
Aircraft A320/M-S/7123

Departure

Time N/A
Airport Lamezia Terme Sant'Eufemia International Airport (LICA)

Arrival

Time 2026-04-28 16:40
Airport Reggio Calabria Airport (LICR)
Time Latitude Longitude Altitude Speed Heading
2026-04-28 16:12 38.90404 16.25398 0 ft 0 kts 278°
2026-04-28 16:14 38.90427 16.25207 0 ft 58 kts 278°
2026-04-28 16:14 38.90664 16.23212 0 ft 136 kts 279°
2026-04-28 16:15 38.90991 16.20394 0 ft 175 kts 277°
2026-04-28 16:15 38.91168 16.18818 0 ft 180 kts 277°
2026-04-28 16:15 38.91352 16.17214 0 ft 183 kts 277°
2026-04-28 16:16 38.91705 16.13952 0 ft 187 kts 265°
2026-04-28 16:16 38.91224 16.12469 0 ft 192 kts 237°
2026-04-28 16:17 38.89438 16.09881 0 ft 202 kts 229°
2026-04-28 16:17 38.88444 16.08667 0 ft 204 kts 227°
2026-04-28 16:17 38.87368 16.07437 0 ft 209 kts 226°
2026-04-28 16:17 38.86256 16.06215 0 ft 211 kts 225°
2026-04-28 16:18 38.85129 16.05001 0 ft 213 kts 225°
2026-04-28 16:18 38.83999 16.03793 0 ft 215 kts 225°
2026-04-28 16:18 38.82877 16.02596 0 ft 217 kts 225°
2026-04-28 16:18 38.81732 16.01373 0 ft 217 kts 225°
2026-04-28 16:19 38.80562 16.00120 0 ft 220 kts 221°
2026-04-28 16:19 38.79363 15.98796 0 ft 233 kts 222°
2026-04-28 16:19 38.78121 15.97437 0 ft 251 kts 222°
2026-04-28 16:19 38.76718 15.95918 0 ft 277 kts 221°
2026-04-28 16:20 38.75203 15.94290 0 ft 286 kts 221°
2026-04-28 16:20 38.73678 15.92661 0 ft 288 kts 221°
2026-04-28 16:20 38.72111 15.90989 0 ft 301 kts 221°
2026-04-28 16:20 38.70475 15.89240 0 ft 319 kts 221°
2026-04-28 16:21 38.68759 15.87400 0 ft 339 kts 221°
2026-04-28 16:21 38.66898 15.85393 0 ft 360 kts 223°
2026-04-28 16:21 38.65355 15.82879 0 ft 376 kts 241°
2026-04-28 16:21 38.64171 15.79868 0 ft 392 kts 246°
2026-04-28 16:22 38.63104 15.76654 0 ft 399 kts 249°
2026-04-28 16:22 38.62126 15.73406 0 ft 398 kts 250°
2026-04-28 16:22 38.61184 15.70068 0 ft 398 kts 251°
2026-04-28 16:22 38.60281 15.66718 0 ft 399 kts 252°
2026-04-28 16:23 38.59410 15.63386 0 ft 399 kts 252°
2026-04-28 16:23 38.58546 15.60008 0 ft 398 kts 252°
2026-04-28 16:23 38.57698 15.56645 0 ft 398 kts 252°
2026-04-28 16:23 38.56861 15.53292 0 ft 398 kts 253°
2026-04-28 16:24 38.56025 15.49918 0 ft 399 kts 253°
2026-04-28 16:24 38.55202 15.46583 0 ft 399 kts 253°
2026-04-28 16:24 38.54390 15.43283 0 ft 398 kts 253°
2026-04-28 16:24 38.53327 15.40109 0 ft 400 kts 237°
2026-04-28 16:25 38.51342 15.37632 0 ft 403 kts 213°
2026-04-28 16:25 38.48730 15.36396 0 ft 406 kts 189°
2026-04-28 16:25 38.45898 15.36457 0 ft 408 kts 174°
2026-04-28 16:25 38.43108 15.37130 0 ft 410 kts 168°
2026-04-28 16:26 38.40360 15.38125 0 ft 411 kts 163°
2026-04-28 16:26 38.37727 15.39316 0 ft 411 kts 160°
2026-04-28 16:26 38.35075 15.40706 0 ft 412 kts 158°
2026-04-28 16:26 38.32548 15.42179 0 ft 408 kts 155°
2026-04-28 16:27 38.30165 15.43686 0 ft 409 kts 154°
2026-04-28 16:27 38.27676 15.45336 0 ft 413 kts 153°
2026-04-28 16:27 38.22748 15.48701 0 ft 404 kts 153°
2026-04-28 16:28 38.20310 15.50380 0 ft 400 kts 153°
2026-04-28 16:28 38.18683 15.51500 0 ft 398 kts 153°
2026-04-28 16:28 38.15547 15.53625 0 ft 366 kts 156°
2026-04-28 16:28 38.13253 15.54477 0 ft 336 kts 170°
2026-04-28 16:29 38.09243 15.54086 0 ft 285 kts 199°
2026-04-28 16:29 38.05766 15.52637 0 ft 246 kts 201°
2026-04-28 16:30 38.04199 15.51942 0 ft 246 kts 201°
2026-04-28 16:30 38.02585 15.51213 0 ft 246 kts 202°
2026-04-28 16:30 38.01057 15.50522 0 ft 226 kts 202°
2026-04-28 16:30 37.99659 15.49896 0 ft 204 kts 202°
2026-04-28 16:31 37.98292 15.49284 0 ft 220 kts 202°
2026-04-28 16:31 37.96828 15.48621 0 ft 230 kts 202°
2026-04-28 16:31 37.95412 15.47983 0 ft 214 kts 202°
2026-04-28 16:31 37.94016 15.47356 0 ft 213 kts 202°
2026-04-28 16:32 37.92668 15.46755 0 ft 215 kts 202°
2026-04-28 16:32 37.89874 15.45505 0 ft 210 kts 202°
2026-04-28 16:32 37.88501 15.44893 0 ft 209 kts 202°
2026-04-28 16:33 37.87193 15.44314 0 ft 208 kts 199°
2026-04-28 16:33 37.86726 15.44165 0 ft 209 kts 186°
2026-04-28 16:33 37.84728 15.45491 0 ft 220 kts 111°
2026-04-28 16:33 37.84632 15.47329 0 ft 199 kts 68°
2026-04-28 16:34 37.85487 15.48572 0 ft 190 kts 28°
2026-04-28 16:34 37.86624 15.49403 0 ft 188 kts 26°
2026-04-28 16:34 37.87744 15.50243 0 ft 185 kts 30°
2026-04-28 16:34 37.88691 15.51139 0 ft 180 kts 41°
2026-04-28 16:35 37.89502 15.52225 0 ft 175 kts 46°
2026-04-28 16:35 37.90318 15.53438 0 ft 205 kts 47°
2026-04-28 16:35 37.91060 15.54600 0 ft 229 kts 53°
2026-04-28 16:35 37.91708 15.56065 0 ft 212 kts 62°
2026-04-28 16:36 37.92231 15.57434 0 ft 176 kts 63°
2026-04-28 16:36 37.92751 15.58797 0 ft 188 kts 63°
2026-04-28 16:36 37.93292 15.60175 0 ft 183 kts 58°
2026-04-28 16:36 37.94090 15.61249 0 ft 170 kts 32°
2026-04-28 16:37 37.95119 15.61985 0 ft 182 kts 20°
2026-04-28 16:37 37.96269 15.62379 0 ft 178 kts
2026-04-28 16:37 37.97307 15.62669 0 ft 161 kts
2026-04-28 16:38 37.98956 15.63801 0 ft 139 kts 25°
2026-04-28 16:38 37.99819 15.64342 0 ft 139 kts 21°
2026-04-28 16:38 38.00685 15.64856 0 ft 141 kts 22°
2026-04-28 16:38 38.01540 15.65386 0 ft 141 kts 23°
2026-04-28 16:39 38.02445 15.66002 0 ft 154 kts 25°
2026-04-28 16:39 38.03335 15.66619 0 ft 148 kts 24°
2026-04-28 16:39 38.04251 15.66876 0 ft 129 kts 345°
2026-04-28 16:39 38.05062 15.66493 0 ft 128 kts 329°
2026-04-28 16:40 38.05743 15.66038 0 ft 123 kts 329°
2026-04-28 16:40 38.06466 15.65588 0 ft 116 kts 330°
2026-04-28 16:40 38.07087 15.65188 0 ft 76 kts 330°
2026-04-28 16:40 38.07330 15.65012 0 ft 19 kts 335°
2026-04-28 16:41 38.07405 15.65049 0 ft 6 kts 63°
2026-04-28 16:41 38.07405 15.65050 0 ft 0 kts 63°
2026-04-28 16:55 38.07413 15.65088 0 ft 11 kts 102°
2026-04-28 16:55 38.07314 15.65158 0 ft 41 kts 153°
2026-04-28 16:55 38.07060 15.65318 0 ft 38 kts 154°
2026-04-28 16:56 38.06849 15.65451 0 ft 34 kts 153°
2026-04-28 16:56 38.06671 15.65605 0 ft 30 kts 136°
2026-04-28 16:56 38.06509 15.65675 0 ft 24 kts 196°
2026-04-28 16:56 38.06506 15.65549 0 ft 27 kts 335°
2026-04-28 16:57 38.06904 15.65300 0 ft 100 kts 333°
2026-04-28 16:57 38.07707 15.64788 0 ft 161 kts 333°
2026-04-28 16:57 38.08725 15.64140 0 ft 194 kts 331°
2026-04-28 16:57 38.09484 15.63628 0 ft 216 kts 329°
2026-04-28 16:58 38.10572 15.62516 0 ft 214 kts 298°
2026-04-28 16:58 38.10808 15.60768 0 ft 217 kts 253°
2026-04-28 16:58 38.09943 15.59272 0 ft 219 kts 213°
2026-04-28 16:58 38.08710 15.58446 0 ft 203 kts 208°
2026-04-28 16:59 38.07468 15.57692 0 ft 208 kts 207°
2026-04-28 16:59 38.06178 15.56901 0 ft 208 kts 209°
2026-04-28 16:59 38.04931 15.55999 0 ft 210 kts 216°
2026-04-28 16:59 38.03747 15.54910 0 ft 212 kts 221°
2026-04-28 17:00 38.02699 15.53756 0 ft 212 kts 225°
2026-04-28 17:01 37.98684 15.48196 0 ft 218 kts 232°
2026-04-28 17:01 37.97720 15.46725 0 ft 221 kts 232°
2026-04-28 17:01 37.96752 15.45233 0 ft 223 kts 232°
2026-04-28 17:01 37.96088 15.44208 0 ft 224 kts 232°
2026-04-28 17:02 37.94730 15.42101 0 ft 259 kts 232°
2026-04-28 17:02 37.93968 15.40919 0 ft 267 kts 232°
2026-04-28 17:02 37.92750 15.39139 0 ft 271 kts 222°
2026-04-28 17:02 37.91235 15.37743 0 ft 275 kts 214°
2026-04-28 17:03 37.87928 15.35372 0 ft 281 kts 209°
2026-04-28 17:03 37.86211 15.34277 0 ft 289 kts 208°
2026-04-28 17:03 37.83774 15.32801 0 ft 305 kts 206°